Tracking 25710 objects as of 7-Jul-2022
HD Live streaming from Space Station
objects crossing your sky now

FENGYUN 1C DEB

Track FENGYUN 1C DEB now!
10-day predictions


NORAD ID: 32316
Int'l Code: 1999-025CXH
Perigee: 752.7 km
Apogee: 813.9 km
Inclination: 99.5 °
Period: 100.4 minutes
Semi major axis: 7154 km
RCS: 0.0087 m2 (small)
Launch date: May 10, 1999
Source: People's Republic of China (PRC)
Launch site: Taiyaun Space Center, China (TSC)

Note: This is SATELLITE DEBRIS
aabbcc
Your satellite tracking list
Your tracking list is empty




NASA's NSSDC Master Catalog

Two Line Element Set (TLE):
1 32316U 99025CXH 22187.58130862  .00000617  00000-0  23436-3 0  9998
2 32316  99.5313  54.7638 0042706  37.3480 353.2245 14.34671459776901
Source of the keplerian elements: AFSPC